Location: Squirrel Cove
(50.1074°N, 124.9139°W)
Time: 16:15:05
(UTC-07:00)

Envisat - Pass Details

Date: 14 September 2024
Orbit: 762 x 764 km, 98.3° (Epoch: 11 October)

Event Time Altitude Azimuth Distance (km) Brightness Sun altitude
Rises 04:24:16 0° 16° (NNE) 3,240 7.1 -23.1°
Reaches altitude 10° 04:26:36 10° 20° (NNE) 2,309 6.2 -22.8°
Maximum altitude 04:31:39 65° 102° (ESE) 841 3.3 -22.2°
Enters shadow 04:34:17 28° 176° (S) 1,396 4.1 -21.8°
